IONOSFERA-M 4

Last updated on Mon Sep 21 2026 00:02:46 GMT+0000 (Coordinated Universal Time)

1 64877U 25155B 26263.58636285 .00000031 00000+0 33776-4 0 9995 2 64877 98.6142 223.0540 0000650 53.6931 306.4307 14.21502604 59954
UTC large
Height (km)
Speed (km/s)
/
Latitude / Longitude
Inclination (degrees)
Orbital Period (minutes)
Azimuth
Elevation
Range (km)
Doppler Factor

Next 0 passes for location: London (51.5072 / 0.1276)

No passes found over London.
IONOSFERA-M 4